SCP
0 0 0 0 0 0 0 0 0 0 0 0 0 0 0 0 0 0 0 0 0 0 0 0 0 0 0 0 0 0 0 0 0 0 0 0 0 0 0 0 0 0 0
0 0 0 0 0 0 0 0 0 0 0 0 0 0 0 0 0 0 0 0 0 0 0 0 0 0 0 0 0 0 0 0 0 0 0 0 0 0 0 0 0 0 0
0 0 0 0 0 0 0 0 0 0 0 0 0 0 0 0 0 0 0 0 0 0 0 0 0 0 0 0 0 0 0 0 0 0 0 0 0 0 0 0 0 0 0
0 0 0 0 0 0 0 0 0 0 0 0 0 0 0 0 0 0 0 0 0 0 0 0 0 0 0 0 0 0 0 0 0 0 0 0 0 0 0 0 0 0 0
0 0 0 0 0 0 0 0 0 0 0 0 0 0 0 0 0 0 0 0 0 0 0 0 0 0 0 0 0 0 0 0 0 0 0 0 0 0 0 0 0 0 0
0 0 0 0 0 0 0 0 0 0 0 0 0 0 0 0 0 0 0 0 0 0 0 0 0 0 0 0 0 0 0 0 0 0 0 0 0 0 0 0 0 0 0
0 0 0 0 0 0 0 0 0 0 0 0 0 0 0 0 0 0 0 0 0 0 0 0 0 0 0 0 0 0 0 0 0 0 0 0 0 0 0 0 0 0 0
0 0 0 0 0 0 0 0 0 0 0 0 0 0 0 0 0 0 0 0 0 0 0 0 0 0 0 0 0 0 0 0 0 0 0 0 0 0 0 0 0 0 0
0 0 0 0 0 0 0 0 0 0 0 0 0 0 0 0 0 0 0 0 0 0 0 0 0 0 0 0 0 0 0 0 0 0 0 0 0 0 0 0 0 0 0
0 0 0 0 0 0 0 0 0 0 0 0 0 0 0 0 0 0 0 0 0 0 0 0 0 0 0 0 0 0 0 0 0 0 0 0 0 0 0 0 0 0 0
0 0 0 0 0 0 0 0 0 0 0 0 0 0 0 0 0 0 0 0 0 0 0 0 0 0 0 0 0 0 0 0 0 0 0 0 0 0 0 0 0 0 0
0 0 0 0 0 0 0 0 0 0 0 0 0 0 0 0 0 0 0 0 0 0 0 0 0 0 0 0 0 0 0 0 0 0 0 0 0 0 0 0 0 0 1
0 0 0 0 0 0 0 0 0 0 0 0 0 0 0 0 0 0 0 0 0 0 0 0 0 0 0 0 0 0 0 0 0 0 0 0 0 0 0 0 0 0 1
0 0 0 0 0 0 0 0 0 0 0 0 0 0 0 0 0 0 0 0 0 0 0 0 0 0 0 0 0 0 0 0 0 0 0 0 0 0 0 0 0 0 1
0 0 0 0 0 0 0 0 0 0 0 0 0 0 0 0 0 0 0 0 0 0 0 0 0 0 0 0 0 0 0 0 0 0 0 0 0 0 0 0 0 0 0
0 0 0 0 0 0 0 0 0 0 0 0 0 0 0 0 0 0 0 0 0 0 0 0 0 0 0 0 0 0 0 0 0 0 0 0 0 0 0 0 0 0 0
0 0 0 0 0 0 0 0 0 0 0 0 0 0 0 0 0 0 0 0 0 0 0 0 0 0 0 0 0 0 0 0 0 0 0 -0 0 0 0 0 0 0 0
0 0 0 0 0 0 0 0 0 0 0 0 0 0 0 0 0 0 0 0 0 0 0 0 0 0 0 0 0 0 0 0 0 0 0 0 -0 0 0 0 0 0 0
0 0 0 0 0 0 0 0 0 0 0 0 0 0 0 0 0 0 0 0 0 0 0 0 0 0 0 0 0 0 0 0 0 0 0 0 0 0 0 0 0 0 0
0 0 0 0 0 0 0 0 0 0 0 0 0 0 0 0 0 0 0 0 0 0 0 0 0 0 0 0 0 0 0 0 0 0 0 0 0 0 0 0 0 0 0
0 0 0 0 0 0 0 0 0 0 0 0 0 0 0 0 0 0 0 0 0 0 0 0 0 0 0 0 0 0 0 0 0 0 0 0 0 0 0 0 0 0 0
0 0 0 0 0 0 0 0 0 0 0 0 0 0 0 0 0 0 0 0 0 0 0 0 0 0 0 0 0 0 0 0 0 0 0 0 0 0 0 0 0 0 0
0 0 0 0 0 0 0 0 0 0 0 0 0 0 0 0 0 0 0 0 0 0 0 0 0 0 0 0 0 0 0 0 0 0 0 0 0 0 0 0 0 0 0
0 0 0 0 0 0 0 0 0 0 0 0 0 0 0 0 0 0 0 0 0 0 0 0 0 0 0 0 0 0 0 0 0 0 0 0 0 0 0 0 0 0 0
0 0 0 0 0 0 0 0 0 0 0 0 0 0 0 0 0 0 0 0 0 0 0 0 0 0 0 0 0 0 0 0 0 0 0 0 0 0 0 0 0 0 0
0 0 0 0 0 0 0 0 0 0 0 0 0 0 0 0 0 0 0 0 0 0 0 0 0 0 0 0 0 0 0 0 0 0 0 0 0 0 0 0 0 0 0
Wind_Speed
0 2 4 6 8 10 11 12 13 14 15 16 17 17 18 18 19 19 20 21 22 22 23 24 24 25 25 26 26 25 25 25 25 25 25 25 26 26 25 25 23 15 24
4 3 5 7 8 9 10 11 12 13 14 15 16 16 17 17 18 19 19 20 21 21 22 23 23 24 25 25 26 26 26 26 26 25 25 22 25 26 25 25 24 16 24
6 3 2 6 8 9 10 11 12 13 13 14 15 16 16 17 17 18 19 20 20 21 21 22 22 23 24 24 25 25 26 26 26 26 23 14 16 24 26 25 24 23 23
7 3 1 7 7 8 9 10 11 12 13 14 15 15 16 17 17 18 18 19 20 20 21 22 22 23 23 24 24 25 26 26 26 26 14 14 13 22 26 25 24 23 22
6 2 0 7 7 8 9 10 10 11 12 13 14 15 16 16 17 18 18 19 20 20 21 21 22 23 23 24 24 25 26 26 26 21 14 14 11 22 26 26 25 24 23
6 3 1 7 6 7 7 8 9 10 11 12 14 15 16 16 17 18 18 19 20 20 21 21 22 23 23 23 24 25 26 26 21 15 15 15 14 23 27 26 26 25 24
6 3 2 6 5 5 6 7 8 9 11 12 14 15 16 16 17 17 18 19 20 20 21 22 22 23 23 23 24 24 25 25 17 15 15 14 17 27 28 27 26 26 25
7 4 2 5 5 4 5 6 7 8 10 12 13 14 16 16 17 17 18 19 20 21 21 22 23 23 24 24 24 24 24 23 17 15 13 12 22 28 29 29 28 27 26
7 5 4 4 4 5 5 5 6 8 9 11 12 13 15 16 17 18 19 20 20 20 21 21 22 23 23 24 24 24 24 24 13 10 14 12 23 29 30 30 30 29 28
6 6 5 4 3 2 3 4 6 6 8 9 11 12 13 15 15 17 17 19 20 20 20 21 22 22 23 23 24 24 23 18 8 9 8 13 27 29 30 30 30 30 30
6 5 5 4 3 2 0 3 4 5 6 7 7 10 9 4 5 8 15 18 19 19 19 20 21 21 21 20 23 24 19 7 7 7 7 21 28 29 30 30 31 31 31
8 6 5 6 4 2 1 2 1 1 2 2 2 3 2 3 4 8 14 17 17 17 17 18 20 18 14 8 13 17 6 8 7 7 11 27 28 29 30 31 31 32 32
9 8 7 6 5 4 2 1 1 0 1 1 1 2 2 2 3 4 3 6 7 10 6 9 9 6 6 6 6 6 7 7 6 8 11 27 29 30 31 31 32 32 33
8 8 8 7 6 5 3 2 2 1 1 1 0 1 2 1 2 2 2 3 3 3 4 4 4 6 6 6 7 7 7 7 7 7 10 27 30 31 32 32 32 33 33
11 10 9 8 7 5 4 2 2 2 2 2 1 1 2 1 0 1 2 2 3 3 3 4 4 6 6 6 6 8 8 9 10 9 9 24 30 31 32 32 33 33 34
12 11 9 9 8 6 4 3 3 3 2 2 2 2 3 2 2 1 2 3 3 3 3 4 5 5 5 5 6 8 9 9 9 10 9 15 26 30 31 32 33 33 34
13 11 10 9 8 7 6 5 3 3 2 3 3 3 4 4 3 2 2 3 3 3 4 4 5 4 5 6 7 8 8 8 9 11 12 10 12 23 29 31 32 33 34
13 12 11 10 9 8 6 5 3 3 3 3 3 3 4 4 4 3 3 3 4 3 3 4 3 4 5 6 6 7 8 8 10 11 11 11 10 12 18 29 32 33 34
15 14 12 10 10 8 7 5 4 3 3 3 3 3 4 5 4 3 3 4 4 3 3 5 4 4 5 7 7 7 7 8 10 12 12 13 12 13 12 20 30 32 33
14 13 13 11 10 8 5 3 2 2 2 3 3 4 5 4 5 4 3 4 4 3 3 3 5 5 5 6 9 9 8 9 8 8 11 11 11 14 14 15 15 19 29
13 13 14 12 10 7 4 3 3 3 3 3 3 5 5 5 5 4 4 4 3 3 4 5 4 5 4 4 6 9 8 8 8 7 7 9 12 13 12 14 12 12 13
17 16 15 14 12 11 6 5 4 3 3 3 3 4 5 5 5 4 4 4 4 3 4 5 4 3 4 4 5 9 9 9 6 10 7 9 10 9 12 15 14 14 13
19 19 17 15 14 11 8 4 3 2 1 2 3 3 4 5 5 4 4 4 4 3 4 5 5 5 5 5 3 4 8 10 13 9 10 10 9 10 11 11 14 15 15
20 16 15 15 13 12 11 8 7 6 5 5 4 3 4 5 5 5 5 5 4 4 5 6 5 4 5 6 5 4 6 8 10 13 10 7 10 12 12 12 13 14 14
16 15 14 14 14 12 11 11 8 7 5 4 3 5 5 4 5 5 5 5 5 4 6 6 6 6 5 6 6 5 6 7 7 8 15 16 13 9 10 12 11 11 12
12 13 13 15 14 13 13 11 10 10 8 6 6 5 4 3 4 5 5 5 5 5 6 6 6 7 6 7 7 6 6 7 7 7 11 14 15 13 12 10 10 9 10
Wind_Direction
174 338 49 56 56 52 48 45 41 38 35 32 30 27 26 26 24 23 21 19 17 14 13 11 10 8 7 6 4 3 2 2 1 2 1 359 353 348 348 348 348 345 346
128 44 59 71 62 57 51 46 43 39 36 33 30 27 26 25 24 23 21 19 16 14 12 11 9 7 6 4 2 360 359 359 359 1 2 357 349 343 344 344 342 341 344
108 70 14 78 70 62 55 48 44 39 36 33 30 27 25 25 24 23 20 18 16 14 12 10 8 7 5 3 1 359 358 358 358 1 1 353 343 340 339 339 338 339 341
115 91 26 91 78 67 58 50 44 40 36 33 30 27 25 24 23 23 20 17 15 14 13 10 8 7 5 3 1 359 358 357 358 1 359 350 343 336 336 335 334 335 336
118 109 118 100 85 71 60 52 44 38 36 33 30 27 25 24 23 23 19 17 15 14 13 11 10 8 6 4 2 1 359 357 1 2 356 348 343 333 334 333 331 330 331
133 140 159 110 95 77 62 52 45 38 35 33 30 27 26 23 22 24 18 16 15 14 13 12 11 9 8 7 4 2 359 357 11 1 352 344 341 328 331 330 328 326 325
153 171 186 117 101 85 67 52 46 38 35 33 30 28 26 22 20 23 17 16 15 14 13 12 11 10 10 7 4 1 359 359 11 355 345 339 331 328 329 328 326 323 320
154 155 71 102 88 72 60 52 45 40 36 33 29 29 26 21 18 22 16 15 14 12 12 10 9 9 8 5 3 1 1 4 5 348 338 339 327 328 328 326 324 321 318
145 134 108 78 58 45 32 44 43 41 36 33 28 28 27 21 18 20 14 12 12 10 9 8 7 7 5 3 0 359 1 1 359 341 339 333 326 328 326 324 321 318 314
142 140 136 121 102 65 2 24 41 38 34 33 25 27 29 24 19 18 11 10 10 8 7 5 4 4 3 359 356 356 359 357 340 337 335 323 328 326 323 320 317 315 311
156 155 152 143 126 103 214 53 36 31 30 39 26 27 36 21 6 20 6 9 7 5 4 1 360 360 359 353 350 351 354 340 333 331 327 324 326 323 320 318 315 312 309
176 178 170 157 149 141 121 83 40 52 51 65 72 56 51 31 12 26 9 7 4 1 359 355 354 355 351 339 339 345 336 332 330 326 324 324 323 322 319 316 313 309 306
179 179 175 167 160 161 173 180 156 129 99 59 65 79 62 47 25 22 12 0 353 354 349 344 342 332 322 321 321 321 323 328 322 318 317 320 321 319 316 313 310 306 303
177 182 179 169 165 176 183 191 183 177 176 185 194 111 89 60 26 3 351 332 330 324 318 316 308 309 308 307 308 311 317 316 313 311 308 317 317 316 314 311 307 304 300
182 183 180 169 172 178 182 204 179 191 194 198 196 172 140 133 111 309 302 303 302 298 299 300 301 302 305 304 306 316 310 308 305 303 308 310 313 312 311 309 306 302 299
185 183 177 173 175 174 179 195 205 205 203 196 200 201 178 174 199 236 275 287 287 284 283 286 292 297 295 295 302 307 304 299 298 297 298 304 306 308 308 306 304 301 297
185 180 178 177 175 175 184 200 200 206 201 203 206 206 198 195 205 218 247 269 273 277 286 290 293 295 306 311 308 305 302 296 296 296 297 294 295 301 303 303 302 299 296
181 180 183 179 173 178 184 195 200 202 201 208 208 212 212 212 211 216 238 259 268 276 282 290 288 304 304 303 301 301 303 299 297 296 293 290 290 291 296 298 299 298 296
183 181 184 177 173 179 182 185 192 195 204 211 215 220 223 223 222 219 237 254 268 274 280 301 319 300 302 306 305 301 301 299 295 295 292 291 287 287 287 294 297 298 297
185 183 182 179 177 172 166 167 180 204 217 222 226 229 227 226 231 231 243 257 267 273 281 285 293 293 289 296 309 309 297 295 291 286 288 292 290 289 289 289 291 293 294
185 185 184 182 180 167 159 169 185 213 221 239 239 232 225 227 235 238 259 266 267 266 274 285 288 295 293 296 305 309 299 283 285 288 285 289 290 290 288 290 288 286 289
192 191 188 187 183 180 175 168 172 177 203 219 233 230 226 230 238 249 248 257 265 270 282 288 290 283 290 311 305 315 312 308 300 311 293 293 294 294 294 295 292 290 289
198 195 193 190 185 183 173 153 153 150 225 234 228 229 235 239 246 251 256 256 262 256 265 275 278 274 290 294 267 280 302 307 315 302 302 298 299 300 297 295 295 296 294
203 195 192 186 184 181 172 171 172 185 203 215 212 222 242 247 249 249 254 257 259 255 259 271 286 270 277 292 291 253 256 280 300 307 307 298 299 302 302 302 301 298 295
198 191 189 183 184 180 179 180 180 196 206 213 220 236 244 248 248 252 254 255 255 252 257 264 274 268 261 270 281 284 283 282 268 288 303 310 307 301 300 301 300 299 300
189 187 184 184 186 183 183 183 187 195 201 210 222 232 239 241 248 252 253 249 250 252 257 261 261 262 260 263 271 271 276 281 288 287 294 302 305 306 302 298 298 301 304